sat.trackr.live / text

‹ back to catalog

GPS BIIF-12 (PRN 32)

NORAD 41328 · 2016-007A

PAYLOAD ACTIVE UNKNOWN

§ Identity

Operator
Country
US
Launch date
2016-02-05
Launch site
AFETR
Launch vehicle
Mass (kg)
RCS (m²)
26.12

Purposes: earth_obs, nav

External: N2YO · Heavens-Above · Gunter

§ Orbital elements

Epoch: 2026-09-11T14:52:06.377664Z

Period
717.94 min
Inclination
55.5828°
Eccentricity
0.0097493
Mean motion
2.00572750 rev/d
Perigee alt
19,922.5 km
Apogee alt
20,440.3 km
Semi-major
26,559.5 km
B*
0.0000e+0
RAAN
86.0329°
Arg perigee
247.2191°
Mean anomaly
111.8125°
Rev number
7,757

§ Raw data

GPS BIIF-12 (PRN 32)1 41328U 16007A   26254.61951826  .00000007  00000+0  00000+0 0  99942 41328  55.5828  86.0329 0097493 247.2191 111.8125  2.00572750 77572

JSON: /api/v1/satellites/41328 · /tle

For live sub-satellite position, see the globe view (requires WebGL).

§ Visibility from observer

Set your observer location to see the next 7 days of passes ≥ 10°. The values pass through the URL so the page stays shareable.

No JS? Fill the form by hand. The geolocation button needs JavaScript.